LOCATION_NAME,SAMPLE COLLECTION TIME,DOSE EQUIVALENT RATE (nSv/h),GAMMA COUNT RATE R02 (CPM),GAMMA COUNT RATE R03 (CPM),GAMMA COUNT RATE R04 (CPM),GAMMA COUNT RATE R05 (CPM),GAMMA COUNT RATE R06 (CPM),GAMMA COUNT RATE R07 (CPM),GAMMA COUNT RATE R08 (CPM),GAMMA COUNT RATE R09 (CPM),STATUS
AL: BIRMINGHAM,01/01/2015 00:59:00,,2120.00,1126.00,308.00,161.00,92.00,107.00,67.00,31.00,APPROVED
AL: BIRMINGHAM,01/01/2015 01:59:00,,2115.00,1117.00,300.00,158.00,91.00,108.00,66.00,31.00,APPROVED
AL: BIRMINGHAM,01/01/2015 03:00:00,,2101.00,1113.00,307.00,162.00,91.00,107.00,64.00,31.00,APPROVED
AL: BIRMINGHAM,01/01/2015 04:00:00,,2105.00,1102.00,309.00,160.00,91.00,108.00,63.00,31.00,APPROVED
AL: BIRMINGHAM,01/01/2015 05:00:00,,2105.00,1112.00,309.00,158.00,89.00,109.00,64.00,30.00,APPROVED
AL: BIRMINGHAM,01/01/2015 06:00:00,,2118.00,1122.00,313.00,159.00,94.00,111.00,65.00,31.00,APPROVED
AL: BIRMINGHAM,01/01/2015 07:00:00,,2136.00,1135.00,316.00,159.00,92.00,116.00,65.00,33.00,APPROVED
AL: BIRMINGHAM,01/01/2015 08:01:00,,2110.00,1138.00,322.00,163.00,90.00,113.00,66.00,31.00,APPROVED
AL: BIRMINGHAM,01/01/2015 09:01:00,,2160.00,1172.00,322.00,166.00,97.00,117.00,67.00,32.00,APPROVED
AL: BIRMINGHAM,01/01/2015 10:01:00,,2160.00,1167.00,324.00,168.00,94.00,118.00,66.00,33.00,APPROVED
AL: BIRMINGHAM,01/01/2015 11:01:00,,2160.00,1163.00,323.00,171.00,95.00,115.00,68.00,31.00,APPROVED
AL: BIRMINGHAM,01/01/2015 12:02:00,,2164.00,1168.00,325.00,168.00,95.00,117.00,69.00,32.00,APPROVED
AL: BIRMINGHAM,01/01/2015 13:02:00,,2191.00,1202.00,322.00,174.00,98.00,119.00,70.00,32.00,APPROVED
AL: BIRMINGHAM,01/01/2015 14:02:00,,2253.00,1247.00,343.00,181.00,102.00,126.00,70.00,33.00,APPROVED
AL: BIRMINGHAM,01/01/2015 15:02:00,,2217.00,1236.00,344.00,188.00,102.00,123.00,70.00,34.00,APPROVED
AL: BIRMINGHAM,01/01/2015 16:02:00,,2173.00,1170.00,321.00,177.00,94.00,117.00,72.00,33.00,APPROVED
AL: BIRMINGHAM,01/01/2015 17:03:00,,2171.00,1153.00,308.00,175.00,93.00,108.00,69.00,33.00,APPROVED
AL: BIRMINGHAM,01/01/2015 18:03:00,,2164.00,1139.00,299.00,168.00,90.00,107.00,68.00,33.00,APPROVED
AL: BIRMINGHAM,01/01/2015 19:03:00,,2171.00,1142.00,295.00,169.00,92.00,105.00,67.00,34.00,APPROVED
AL: BIRMINGHAM,01/01/2015 20:03:00,,2183.00,1152.00,301.00,166.00,91.00,104.00,67.00,32.00,APPROVED
AL: BIRMINGHAM,01/01/2015 21:04:00,,2179.00,1141.00,301.00,167.00,91.00,103.00,66.00,33.00,APPROVED
AL: BIRMINGHAM,01/01/2015 22:04:00,,2215.00,1161.00,300.00,166.00,92.00,108.00,67.00,34.00,APPROVED
AL: BIRMINGHAM,01/01/2015 23:04:00,,2256.00,1220.00,319.00,180.00,97.00,118.00,70.00,33.00,APPROVED
AL: BIRMINGHAM,01/02/2015 00:04:00,,2282.00,1238.00,328.00,187.00,101.00,118.00,74.00,33.00,APPROVED
AL: BIRMINGHAM,01/02/2015 01:04:00,,2361.00,1313.00,347.00,201.00,106.00,127.00,76.00,34.00,APPROVED
AL: BIRMINGHAM,01/02/2015 02:05:00,,2464.00,1379.00,369.00,216.00,111.00,135.00,78.00,37.00,APPROVED
AL: BIRMINGHAM,01/02/2015 03:05:00,,2380.00,1330.00,354.00,208.00,108.00,135.00,77.00,35.00,APPROVED
AL: BIRMINGHAM,01/02/2015 04:05:00,,2235.00,1210.00,329.00,186.00,96.00,119.00,72.00,32.00,APPROVED
AL: BIRMINGHAM,01/02/2015 05:05:00,,2168.00,1150.00,310.00,171.00,93.00,110.00,67.00,33.00,APPROVED
AL: BIRMINGHAM,01/02/2015 06:05:00,,2199.00,1169.00,314.00,175.00,93.00,114.00,68.00,32.00,APPROVED
AL: BIRMINGHAM,01/02/2015 07:06:00,,2158.00,1142.00,305.00,171.00,93.00,110.00,67.00,33.00,APPROVED
AL: BIRMINGHAM,01/02/2015 08:06:00,,2178.00,1161.00,314.00,170.00,93.00,109.00,66.00,34.00,APPROVED
AL: BIRMINGHAM,01/02/2015 09:06:00,,2287.00,1247.00,335.00,186.00,101.00,121.00,72.00,34.00,APPROVED
AL: BIRMINGHAM,01/02/2015 10:06:00,,2420.00,1356.00,358.00,204.00,104.00,131.00,75.00,35.00,APPROVED
AL: BIRMINGHAM,01/02/2015 11:07:00,,2244.00,1210.00,331.00,183.00,98.00,118.00,71.00,33.00,APPROVED
AL: BIRMINGHAM,01/02/2015 12:07:00,,2269.00,1254.00,330.00,182.00,99.00,117.00,71.00,33.00,APPROVED
AL: BIRMINGHAM,01/02/2015 13:07:00,,2336.00,1310.00,347.00,203.00,104.00,131.00,75.00,36.00,APPROVED
AL: BIRMINGHAM,01/02/2015 14:07:00,,2199.00,1193.00,326.00,180.00,99.00,116.00,69.00,34.00,APPROVED
AL: BIRMINGHAM,01/02/2015 15:07:00,,2458.00,1403.00,365.00,208.00,108.00,135.00,80.00,37.00,APPROVED
AL: BIRMINGHAM,01/02/2015 15:52:00,,2588.00,1523.00,393.00,232.00,118.00,149.00,87.00,37.00,APPROVED
AL: BIRMINGHAM,01/02/2015 17:00:00,,2308.00,1243.00,334.00,184.00,98.00,118.00,71.00,33.00,APPROVED
AL: BIRMINGHAM,01/02/2015 18:00:00,,2258.00,1224.00,329.00,188.00,99.00,119.00,71.00,33.00,APPROVED
AL: BIRMINGHAM,01/02/2015 19:00:00,,2260.00,1244.00,326.00,196.00,100.00,122.00,73.00,33.00,APPROVED
AL: BIRMINGHAM,01/02/2015 20:00:00,,2325.00,1308.00,346.00,204.00,104.00,130.00,75.00,35.00,APPROVED
AL: BIRMINGHAM,01/02/2015 21:00:00,,2372.00,1318.00,350.00,206.00,107.00,129.00,77.00,36.00,APPROVED
AL: BIRMINGHAM,01/02/2015 22:01:00,,2356.00,1321.00,348.00,206.00,105.00,129.00,75.00,36.00,APPROVED
AL: BIRMINGHAM,01/02/2015 23:01:00,,2302.00,1276.00,337.00,199.00,100.00,123.00,72.00,36.00,APPROVED
AL: BIRMINGHAM,01/03/2015 00:01:00,,2213.00,1212.00,321.00,189.00,97.00,118.00,74.00,35.00,APPROVED
AL: BIRMINGHAM,01/03/2015 01:01:00,,2192.00,1193.00,315.00,184.00,98.00,114.00,70.00,35.00,APPROVED
AL: BIRMINGHAM,01/03/2015 02:02:00,,2219.00,1214.00,320.00,188.00,96.00,116.00,72.00,34.00,APPROVED
AL: BIRMINGHAM,01/03/2015 03:02:00,,2200.00,1203.00,313.00,190.00,98.00,118.00,70.00,33.00,APPROVED
AL: BIRMINGHAM,01/03/2015 04:02:00,,2195.00,1187.00,310.00,186.00,97.00,113.00,71.00,33.00,APPROVED
AL: BIRMINGHAM,01/03/2015 05:02:00,,2165.00,1172.00,308.00,178.00,95.00,110.00,70.00,33.00,APPROVED
AL: BIRMINGHAM,01/03/2015 06:02:00,,2170.00,1177.00,310.00,183.00,97.00,112.00,70.00,34.00,APPROVED
AL: BIRMINGHAM,01/03/2015 07:03:00,,2179.00,1199.00,312.00,188.00,97.00,115.00,72.00,35.00,APPROVED
AL: BIRMINGHAM,01/03/2015 08:03:00,,2174.00,1202.00,311.00,193.00,99.00,117.00,70.00,35.00,APPROVED
AL: BIRMINGHAM,01/03/2015 09:03:00,,2191.00,1210.00,317.00,192.00,99.00,118.00,71.00,34.00,APPROVED
AL: BIRMINGHAM,01/03/2015 10:03:00,,2188.00,1211.00,316.00,195.00,99.00,117.00,73.00,35.00,APPROVED
AL: BIRMINGHAM,01/03/2015 11:04:00,,2201.00,1223.00,316.00,197.00,101.00,119.00,72.00,36.00,APPROVED
AL: BIRMINGHAM,01/03/2015 12:04:00,,2184.00,1187.00,311.00,190.00,97.00,117.00,71.00,36.00,APPROVED
AL: BIRMINGHAM,01/03/2015 13:04:00,,2167.00,1173.00,305.00,183.00,94.00,112.00,69.00,34.00,APPROVED
AL: BIRMINGHAM,01/03/2015 14:04:00,,2157.00,1177.00,302.00,185.00,97.00,112.00,69.00,34.00,APPROVED
AL: BIRMINGHAM,01/03/2015 15:04:00,,2183.00,1190.00,306.00,190.00,96.00,116.00,70.00,37.00,APPROVED
AL: BIRMINGHAM,01/03/2015 16:05:00,,2171.00,1181.00,308.00,187.00,96.00,112.00,69.00,34.00,APPROVED
AL: BIRMINGHAM,01/03/2015 17:05:00,,2147.00,1160.00,300.00,176.00,95.00,109.00,67.00,33.00,APPROVED
AL: BIRMINGHAM,01/03/2015 18:05:00,,2151.00,1162.00,303.00,175.00,91.00,109.00,67.00,34.00,APPROVED
AL: BIRMINGHAM,01/03/2015 19:05:00,,2148.00,1161.00,300.00,172.00,93.00,107.00,68.00,34.00,APPROVED
AL: BIRMINGHAM,01/03/2015 20:06:00,,2125.00,1136.00,293.00,168.00,92.00,108.00,65.00,33.00,APPROVED
AL: BIRMINGHAM,01/03/2015 21:06:00,,2130.00,1129.00,287.00,170.00,89.00,103.00,67.00,33.00,APPROVED
AL: BIRMINGHAM,01/03/2015 22:06:00,,2126.00,1133.00,289.00,170.00,90.00,105.00,66.00,33.00,APPROVED
AL: BIRMINGHAM,01/03/2015 23:06:00,,2165.00,1169.00,297.00,173.00,94.00,108.00,69.00,35.00,APPROVED
AL: BIRMINGHAM,01/04/2015 00:06:00,,2139.00,1144.00,292.00,170.00,92.00,105.00,64.00,33.00,APPROVED
AL: BIRMINGHAM,01/04/2015 01:07:00,,2127.00,1129.00,292.00,165.00,89.00,99.00,63.00,34.00,APPROVED
AL: BIRMINGHAM,01/04/2015 02:07:00,,2362.00,1340.00,327.00,194.00,101.00,120.00,70.00,36.00,APPROVED
AL: BIRMINGHAM,01/04/2015 03:07:00,,2327.00,1297.00,329.00,199.00,101.00,119.00,73.00,38.00,APPROVED
AL: BIRMINGHAM,01/04/2015 04:07:00,,2216.00,1205.00,314.00,179.00,93.00,110.00,69.00,36.00,APPROVED
AL: BIRMINGHAM,01/04/2015 05:08:00,,2288.00,1268.00,319.00,188.00,97.00,115.00,69.00,36.00,APPROVED
AL: BIRMINGHAM,01/04/2015 06:08:00,,2388.00,1363.00,335.00,204.00,103.00,123.00,73.00,39.00,APPROVED
AL: BIRMINGHAM,01/04/2015 07:08:00,,2453.00,1424.00,350.00,216.00,108.00,129.00,77.00,39.00,APPROVED
AL: BIRMINGHAM,01/04/2015 08:08:00,,2452.00,1419.00,359.00,217.00,107.00,130.00,76.00,39.00,APPROVED
AL: BIRMINGHAM,01/04/2015 09:08:00,,2351.00,1316.00,332.00,206.00,104.00,123.00,73.00,37.00,APPROVED
AL: BIRMINGHAM,01/04/2015 10:09:00,,2242.00,1227.00,311.00,188.00,98.00,113.00,71.00,36.00,APPROVED
AL: BIRMINGHAM,01/04/2015 11:09:00,,2157.00,1149.00,299.00,170.00,93.00,106.00,68.00,34.00,APPROVED
AL: BIRMINGHAM,01/04/2015 12:09:00,,2119.00,1115.00,284.00,162.00,90.00,102.00,64.00,33.00,APPROVED
AL: BIRMINGHAM,01/04/2015 13:09:00,,2126.00,1133.00,296.00,171.00,92.00,103.00,66.00,33.00,APPROVED
AL: BIRMINGHAM,01/04/2015 14:09:00,,2121.00,1142.00,297.00,173.00,93.00,104.00,68.00,33.00,APPROVED
AL: BIRMINGHAM,01/04/2015 15:10:00,,2113.00,1144.00,301.00,177.00,94.00,110.00,68.00,34.00,APPROVED
AL: BIRMINGHAM,01/04/2015 16:10:00,,2119.00,1157.00,307.00,178.00,93.00,112.00,70.00,34.00,APPROVED
AL: BIRMINGHAM,01/04/2015 17:10:00,,2149.00,1186.00,312.00,185.00,97.00,116.00,70.00,36.00,APPROVED
AL: BIRMINGHAM,01/04/2015 18:10:00,,2194.00,1219.00,321.00,191.00,100.00,119.00,73.00,35.00,APPROVED
AL: BIRMINGHAM,01/04/2015 19:11:00,,2190.00,1236.00,322.00,196.00,101.00,119.00,74.00,35.00,APPROVED
AL: BIRMINGHAM,01/04/2015 20:11:00,,2187.00,1222.00,323.00,197.00,101.00,118.00,75.00,35.00,APPROVED
AL: BIRMINGHAM,01/04/2015 21:11:00,,2167.00,1205.00,322.00,194.00,102.00,116.00,71.00,36.00,APPROVED
AL: BIRMINGHAM,01/04/2015 22:11:00,,2121.00,1172.00,314.00,184.00,96.00,117.00,73.00,33.00,APPROVED
AL: BIRMINGHAM,01/04/2015 23:11:00,,2107.00,1148.00,313.00,179.00,94.00,112.00,71.00,33.00,APPROVED
AL: BIRMINGHAM,01/05/2015 00:12:00,,2089.00,1141.00,303.00,176.00,92.00,112.00,69.00,33.00,APPROVED
AL: BIRMINGHAM,01/05/2015 01:12:00,,2095.00,1140.00,309.00,175.00,95.00,114.00,69.00,31.00,APPROVED
AL: BIRMINGHAM,01/05/2015 02:12:00,,2088.00,1154.00,308.00,176.00,95.00,112.00,70.00,34.00,APPROVED
AL: BIRMINGHAM,01/05/2015 03:12:00,,2090.00,1145.00,315.00,175.00,95.00,113.00,68.00,34.00,APPROVED
AL: BIRMINGHAM,01/05/2015 04:13:00,,2087.00,1132.00,310.00,177.00,94.00,113.00,69.00,33.00,APPROVED
AL: BIRMINGHAM,01/05/2015 05:13:00,,2071.00,1143.00,315.00,172.00,93.00,114.00,70.00,31.00,APPROVED
AL: BIRMINGHAM,01/05/2015 06:13:00,,2104.00,1161.00,325.00,177.00,100.00,119.00,72.00,33.00,APPROVED
AL: BIRMINGHAM,01/05/2015 07:13:00,,2128.00,1215.00,337.00,188.00,104.00,126.00,75.00,34.00,APPROVED
AL: BIRMINGHAM,01/05/2015 08:13:00,,2135.00,1238.00,344.00,193.00,105.00,132.00,75.00,35.00,APPROVED
AL: BIRMINGHAM,01/05/2015 09:14:00,,2113.00,1220.00,348.00,192.00,104.00,132.00,76.00,34.00,APPROVED
AL: BIRMINGHAM,01/05/2015 10:14:00,,2126.00,1247.00,359.00,194.00,106.00,137.00,77.00,35.00,APPROVED
AL: BIRMINGHAM,01/05/2015 11:14:00,,2148.00,1269.00,369.00,194.00,109.00,141.00,76.00,34.00,APPROVED
AL: BIRMINGHAM,01/05/2015 12:14:00,,2142.00,1265.00,374.00,198.00,108.00,143.00,80.00,33.00,APPROVED
AL: BIRMINGHAM,01/05/2015 13:15:00,,2111.00,1249.00,375.00,193.00,107.00,144.00,77.00,33.00,APPROVED
AL: BIRMINGHAM,01/05/2015 14:15:00,,2116.00,1246.00,371.00,189.00,108.00,144.00,78.00,33.00,APPROVED
AL: BIRMINGHAM,01/05/2015 15:27:00,,1999.00,1044.00,294.00,144.00,86.00,104.00,58.00,31.00,APPROVED
AL: BIRMINGHAM,01/05/2015 16:27:00,,2032.00,1131.00,325.00,167.00,95.00,118.00,67.00,32.00,APPROVED
AL: BIRMINGHAM,01/05/2015 17:27:00,,2066.00,1139.00,326.00,167.00,95.00,119.00,67.00,30.00,APPROVED
AL: BIRMINGHAM,01/05/2015 18:27:00,,2104.00,1155.00,318.00,170.00,95.00,118.00,67.00,31.00,APPROVED
AL: BIRMINGHAM,01/05/2015 19:27:00,,2120.00,1139.00,307.00,173.00,93.00,113.00,67.00,33.00,APPROVED
AL: BIRMINGHAM,01/05/2015 20:28:00,,2105.00,1130.00,306.00,172.00,93.00,111.00,68.00,32.00,APPROVED
AL: BIRMINGHAM,01/05/2015 21:28:00,,2077.00,1114.00,301.00,167.00,92.00,107.00,68.00,30.00,APPROVED
AL: BIRMINGHAM,01/05/2015 22:28:00,,2055.00,1105.00,304.00,168.00,91.00,109.00,67.00,32.00,APPROVED
AL: BIRMINGHAM,01/05/2015 23:28:00,,2046.00,1086.00,299.00,160.00,92.00,106.00,66.00,31.00,APPROVED
AL: BIRMINGHAM,01/06/2015 00:29:00,,1999.00,1068.00,297.00,157.00,89.00,105.00,66.00,30.00,APPROVED
AL: BIRMINGHAM,01/06/2015 01:29:00,,1984.00,1050.00,289.00,151.00,88.00,104.00,63.00,31.00,APPROVED
AL: BIRMINGHAM,01/06/2015 02:29:00,,1967.00,1043.00,291.00,151.00,89.00,105.00,61.00,30.00,APPROVED
AL: BIRMINGHAM,01/06/2015 03:29:00,,1969.00,1054.00,298.00,152.00,90.00,104.00,62.00,31.00,APPROVED
AL: BIRMINGHAM,01/06/2015 04:29:00,,1957.00,1058.00,306.00,151.00,86.00,107.00,62.00,30.00,APPROVED
AL: BIRMINGHAM,01/06/2015 05:30:00,,1965.00,1060.00,304.00,148.00,87.00,107.00,61.00,30.00,APPROVED
AL: BIRMINGHAM,01/06/2015 06:30:00,,1968.00,1050.00,303.00,151.00,87.00,108.00,61.00,29.00,APPROVED
AL: BIRMINGHAM,01/06/2015 07:30:00,,1962.00,1046.00,299.00,147.00,86.00,106.00,61.00,30.00,APPROVED
AL: BIRMINGHAM,01/06/2015 08:30:00,,1977.00,1053.00,301.00,148.00,87.00,106.00,60.00,30.00,APPROVED
AL: BIRMINGHAM,01/06/2015 09:30:00,,2021.00,1093.00,313.00,153.00,90.00,115.00,62.00,31.00,APPROVED
AL: BIRMINGHAM,01/06/2015 10:31:00,,2067.00,1165.00,335.00,169.00,95.00,125.00,69.00,32.00,APPROVED
AL: BIRMINGHAM,01/06/2015 11:31:00,,2091.00,1184.00,351.00,173.00,103.00,129.00,68.00,33.00,APPROVED
AL: BIRMINGHAM,01/06/2015 12:31:00,,2064.00,1174.00,349.00,176.00,99.00,129.00,69.00,32.00,APPROVED
AL: BIRMINGHAM,01/06/2015 13:31:00,,2044.00,1137.00,338.00,168.00,97.00,125.00,67.00,34.00,APPROVED
AL: BIRMINGHAM,01/06/2015 14:32:00,,2068.00,1145.00,328.00,169.00,96.00,120.00,68.00,32.00,APPROVED
AL: BIRMINGHAM,01/06/2015 15:32:00,,2062.00,1131.00,320.00,168.00,96.00,115.00,69.00,32.00,APPROVED
AL: BIRMINGHAM,01/06/2015 16:32:00,,2059.00,1112.00,310.00,167.00,90.00,109.00,69.00,32.00,APPROVED
AL: BIRMINGHAM,01/06/2015 17:32:00,,2129.00,1150.00,308.00,170.00,95.00,114.00,69.00,33.00,APPROVED
AL: BIRMINGHAM,01/06/2015 18:32:00,,2151.00,1143.00,310.00,172.00,95.00,109.00,67.00,33.00,APPROVED
AL: BIRMINGHAM,01/06/2015 19:33:00,,2130.00,1137.00,305.00,168.00,95.00,106.00,67.00,33.00,APPROVED
AL: BIRMINGHAM,01/06/2015 20:33:00,,2105.00,1125.00,299.00,163.00,92.00,102.00,67.00,32.00,APPROVED
AL: BIRMINGHAM,01/06/2015 21:33:00,,2093.00,1106.00,297.00,162.00,91.00,103.00,64.00,33.00,APPROVED
AL: BIRMINGHAM,01/06/2015 22:33:00,,2090.00,1108.00,295.00,162.00,91.00,100.00,66.00,32.00,APPROVED
AL: BIRMINGHAM,01/06/2015 23:34:00,,2080.00,1084.00,292.00,158.00,92.00,102.00,64.00,33.00,APPROVED
AL: BIRMINGHAM,01/07/2015 00:34:00,,2057.00,1090.00,294.00,159.00,89.00,99.00,64.00,31.00,APPROVED
AL: BIRMINGHAM,01/07/2015 01:34:00,,2063.00,1084.00,298.00,155.00,87.00,102.00,65.00,31.00,APPROVED
AL: BIRMINGHAM,01/07/2015 02:34:00,,2062.00,1085.00,293.00,158.00,88.00,103.00,66.00,31.00,APPROVED
AL: BIRMINGHAM,01/07/2015 03:34:00,,2055.00,1087.00,296.00,159.00,88.00,105.00,64.00,32.00,APPROVED
AL: BIRMINGHAM,01/07/2015 04:35:00,,2027.00,1082.00,295.00,157.00,88.00,105.00,66.00,31.00,APPROVED
AL: BIRMINGHAM,01/07/2015 05:35:00,,2018.00,1078.00,300.00,154.00,89.00,104.00,62.00,30.00,APPROVED
AL: BIRMINGHAM,01/07/2015 06:35:00,,2004.00,1071.00,300.00,156.00,89.00,107.00,64.00,31.00,APPROVED
AL: BIRMINGHAM,01/07/2015 07:35:00,,1991.00,1070.00,305.00,151.00,89.00,108.00,63.00,31.00,APPROVED
AL: BIRMINGHAM,01/07/2015 08:35:00,,1999.00,1069.00,308.00,150.00,89.00,107.00,64.00,31.00,APPROVED
AL: BIRMINGHAM,01/07/2015 09:36:00,,2007.00,1079.00,312.00,152.00,89.00,110.00,62.00,31.00,APPROVED
AL: BIRMINGHAM,01/07/2015 10:36:00,,1997.00,1083.00,315.00,156.00,91.00,112.00,63.00,32.00,APPROVED
AL: BIRMINGHAM,01/07/2015 11:36:00,,2007.00,1081.00,316.00,158.00,92.00,113.00,63.00,32.00,APPROVED
AL: BIRMINGHAM,01/07/2015 12:36:00,,2019.00,1099.00,321.00,157.00,91.00,115.00,64.00,31.00,APPROVED
AL: BIRMINGHAM,01/07/2015 13:37:00,,1990.00,1091.00,315.00,154.00,91.00,116.00,64.00,31.00,APPROVED
AL: BIRMINGHAM,01/07/2015 14:37:00,,1964.00,1068.00,311.00,153.00,91.00,113.00,64.00,32.00,APPROVED
AL: BIRMINGHAM,01/07/2015 15:37:00,,1945.00,1038.00,299.00,149.00,88.00,109.00,60.00,31.00,APPROVED
AL: BIRMINGHAM,01/07/2015 16:37:00,,1924.00,1021.00,298.00,146.00,86.00,106.00,60.00,31.00,APPROVED
AL: BIRMINGHAM,01/07/2015 17:37:00,,1900.00,1000.00,286.00,141.00,85.00,101.00,59.00,30.00,APPROVED
AL: BIRMINGHAM,01/07/2015 18:38:00,,1890.00,997.00,280.00,137.00,84.00,98.00,59.00,30.00,APPROVED
AL: BIRMINGHAM,01/07/2015 19:38:00,,1899.00,993.00,280.00,136.00,84.00,97.00,57.00,29.00,APPROVED
AL: BIRMINGHAM,01/07/2015 20:38:00,,1900.00,988.00,282.00,139.00,85.00,98.00,58.00,30.00,APPROVED
AL: BIRMINGHAM,01/07/2015 21:38:00,,1868.00,971.00,276.00,138.00,84.00,96.00,58.00,29.00,APPROVED
AL: BIRMINGHAM,01/07/2015 22:39:00,,1846.00,954.00,271.00,133.00,80.00,96.00,55.00,29.00,APPROVED
AL: BIRMINGHAM,01/07/2015 23:39:00,,1825.00,946.00,278.00,132.00,82.00,98.00,54.00,30.00,APPROVED
AL: BIRMINGHAM,01/08/2015 00:39:00,,1835.00,960.00,283.00,133.00,84.00,101.00,53.00,29.00,APPROVED
AL: BIRMINGHAM,01/08/2015 01:39:00,,1830.00,964.00,293.00,136.00,85.00,104.00,56.00,30.00,APPROVED
AL: BIRMINGHAM,01/08/2015 02:39:00,,1779.00,949.00,288.00,135.00,83.00,104.00,56.00,30.00,APPROVED
AL: BIRMINGHAM,01/08/2015 03:40:00,,1752.00,929.00,281.00,130.00,84.00,99.00,53.00,29.00,APPROVED
AL: BIRMINGHAM,01/08/2015 04:40:00,,1743.00,924.00,276.00,131.00,83.00,98.00,56.00,28.00,APPROVED
AL: BIRMINGHAM,01/08/2015 05:40:00,,1716.00,907.00,273.00,130.00,80.00,99.00,54.00,28.00,APPROVED
AL: BIRMINGHAM,01/08/2015 06:40:00,,1715.00,912.00,272.00,127.00,81.00,100.00,54.00,30.00,APPROVED
AL: BIRMINGHAM,01/08/2015 07:40:00,,1711.00,908.00,272.00,133.00,81.00,95.00,56.00,30.00,APPROVED
AL: BIRMINGHAM,01/08/2015 08:41:00,,1697.00,896.00,270.00,128.00,80.00,97.00,54.00,29.00,APPROVED
AL: BIRMINGHAM,01/08/2015 09:41:00,,1705.00,895.00,264.00,129.00,80.00,95.00,56.00,29.00,APPROVED
AL: BIRMINGHAM,01/08/2015 10:41:00,,1737.00,960.00,272.00,155.00,88.00,97.00,63.00,32.00,APPROVED
AL: BIRMINGHAM,01/08/2015 11:41:00,,1742.00,1006.00,276.00,164.00,88.00,103.00,65.00,35.00,APPROVED
AL: BIRMINGHAM,01/08/2015 12:42:00,,1761.00,1021.00,279.00,167.00,90.00,106.00,65.00,34.00,APPROVED
AL: BIRMINGHAM,01/08/2015 13:42:00,,1782.00,1036.00,283.00,170.00,93.00,108.00,68.00,35.00,APPROVED
AL: BIRMINGHAM,01/08/2015 14:42:00,,1796.00,1023.00,285.00,165.00,88.00,106.00,65.00,34.00,APPROVED
AL: BIRMINGHAM,01/08/2015 15:42:00,,1814.00,954.00,285.00,136.00,84.00,104.00,57.00,29.00,APPROVED
AL: BIRMINGHAM,01/08/2015 16:42:00,,1830.00,970.00,281.00,140.00,84.00,100.00,61.00,30.00,APPROVED
AL: BIRMINGHAM,01/08/2015 17:43:00,,1871.00,974.00,284.00,134.00,81.00,101.00,54.00,30.00,APPROVED
AL: BIRMINGHAM,01/08/2015 18:43:00,,1901.00,973.00,286.00,136.00,82.00,99.00,55.00,29.00,APPROVED
AL: BIRMINGHAM,01/08/2015 19:43:00,,1934.00,984.00,281.00,137.00,82.00,99.00,55.00,29.00,APPROVED
AL: BIRMINGHAM,01/08/2015 20:43:00,,1922.00,978.00,278.00,136.00,85.00,97.00,58.00,29.00,APPROVED
AL: BIRMINGHAM,01/08/2015 21:44:00,,1890.00,972.00,278.00,137.00,83.00,96.00,58.00,29.00,APPROVED
AL: BIRMINGHAM,01/08/2015 22:44:00,,1896.00,978.00,282.00,136.00,84.00,96.00,58.00,29.00,APPROVED
AL: BIRMINGHAM,01/08/2015 23:44:00,,1909.00,979.00,282.00,140.00,83.00,100.00,57.00,28.00,APPROVED
AL: BIRMINGHAM,01/09/2015 00:44:00,,1887.00,978.00,282.00,135.00,84.00,100.00,56.00,29.00,APPROVED
AL: BIRMINGHAM,01/09/2015 01:44:00,,1876.00,968.00,282.00,136.00,83.00,99.00,55.00,30.00,APPROVED
AL: BIRMINGHAM,01/09/2015 02:45:00,,1875.00,982.00,281.00,136.00,83.00,101.00,58.00,30.00,APPROVED
AL: BIRMINGHAM,01/09/2015 03:45:00,,1875.00,981.00,284.00,134.00,84.00,101.00,55.00,29.00,APPROVED
AL: BIRMINGHAM,01/09/2015 04:45:00,,1889.00,980.00,289.00,138.00,82.00,103.00,58.00,29.00,APPROVED
AL: BIRMINGHAM,01/09/2015 05:45:00,,1899.00,992.00,289.00,138.00,84.00,106.00,54.00,30.00,APPROVED
AL: BIRMINGHAM,01/09/2015 06:46:00,,1920.00,1004.00,293.00,137.00,83.00,106.00,56.00,31.00,APPROVED
AL: BIRMINGHAM,01/09/2015 07:46:00,,1936.00,1010.00,291.00,139.00,85.00,102.00,59.00,31.00,APPROVED
AL: BIRMINGHAM,01/09/2015 08:46:00,,1929.00,1021.00,297.00,141.00,84.00,109.00,56.00,30.00,APPROVED
AL: BIRMINGHAM,01/09/2015 09:46:00,,1952.00,1030.00,302.00,140.00,86.00,109.00,57.00,30.00,APPROVED
AL: BIRMINGHAM,01/09/2015 10:46:00,,1958.00,1040.00,303.00,144.00,87.00,112.00,57.00,30.00,APPROVED
AL: BIRMINGHAM,01/09/2015 11:47:00,,1935.00,1022.00,302.00,140.00,86.00,109.00,58.00,30.00,APPROVED
AL: BIRMINGHAM,01/09/2015 12:47:00,,1924.00,1009.00,295.00,140.00,85.00,109.00,57.00,32.00,APPROVED
AL: BIRMINGHAM,01/09/2015 13:47:00,,1953.00,1059.00,295.00,156.00,89.00,105.00,62.00,32.00,APPROVED
AL: BIRMINGHAM,01/09/2015 14:47:00,,1987.00,1146.00,297.00,183.00,96.00,114.00,69.00,36.00,APPROVED
AL: BIRMINGHAM,01/09/2015 15:47:00,,2026.00,1170.00,311.00,187.00,97.00,117.00,73.00,39.00,APPROVED
AL: BIRMINGHAM,01/09/2015 17:16:00,,2036.00,1126.00,299.00,162.00,89.00,109.00,67.00,37.00,APPROVED
AL: BIRMINGHAM,01/09/2015 18:17:00,,2102.00,1183.00,306.00,175.00,94.00,114.00,68.00,38.00,APPROVED
AL: BIRMINGHAM,01/09/2015 19:17:00,,2139.00,1209.00,319.00,180.00,98.00,116.00,70.00,38.00,APPROVED
AL: BIRMINGHAM,01/09/2015 20:17:00,,2136.00,1210.00,314.00,185.00,96.00,115.00,71.00,38.00,APPROVED
AL: BIRMINGHAM,01/09/2015 21:17:00,,2128.00,1218.00,314.00,184.00,96.00,117.00,70.00,39.00,APPROVED
AL: BIRMINGHAM,01/09/2015 22:17:00,,2119.00,1206.00,312.00,182.00,94.00,116.00,72.00,36.00,APPROVED
AL: BIRMINGHAM,01/09/2015 23:18:00,,2114.00,1195.00,309.00,182.00,96.00,116.00,71.00,38.00,APPROVED
AL: BIRMINGHAM,01/10/2015 00:18:00,,2110.00,1190.00,311.00,180.00,95.00,115.00,69.00,37.00,APPROVED
AL: BIRMINGHAM,01/10/2015 01:18:00,,2096.00,1189.00,310.00,181.00,94.00,116.00,72.00,39.00,APPROVED
AL: BIRMINGHAM,01/10/2015 02:18:00,,2096.00,1192.00,307.00,186.00,97.00,116.00,71.00,39.00,APPROVED
AL: BIRMINGHAM,01/10/2015 03:19:00,,2088.00,1191.00,312.00,184.00,96.00,117.00,72.00,39.00,APPROVED
AL: BIRMINGHAM,01/10/2015 04:19:00,,2072.00,1192.00,309.00,186.00,97.00,118.00,70.00,39.00,APPROVED
AL: BIRMINGHAM,01/10/2015 05:19:00,,2056.00,1178.00,307.00,182.00,93.00,116.00,72.00,37.00,APPROVED
AL: BIRMINGHAM,01/10/2015 06:19:00,,2023.00,1145.00,298.00,175.00,95.00,113.00,69.00,37.00,APPROVED
AL: BIRMINGHAM,01/10/2015 07:19:00,,2004.00,1134.00,295.00,174.00,94.00,111.00,67.00,37.00,APPROVED
AL: BIRMINGHAM,01/10/2015 08:20:00,,2000.00,1127.00,297.00,171.00,92.00,112.00,66.00,37.00,APPROVED
AL: BIRMINGHAM,01/10/2015 09:20:00,,1978.00,1124.00,298.00,173.00,90.00,109.00,68.00,35.00,APPROVED
AL: BIRMINGHAM,01/10/2015 10:20:00,,1966.00,1098.00,291.00,168.00,90.00,107.00,68.00,33.00,APPROVED
AL: BIRMINGHAM,01/10/2015 11:20:00,,1955.00,1099.00,285.00,168.00,89.00,108.00,67.00,35.00,APPROVED
AL: BIRMINGHAM,01/10/2015 12:21:00,,1952.00,1098.00,288.00,168.00,90.00,108.00,66.00,33.00,APPROVED
AL: BIRMINGHAM,01/10/2015 13:21:00,,1957.00,1108.00,291.00,168.00,91.00,110.00,69.00,34.00,APPROVED
AL: BIRMINGHAM,01/10/2015 14:21:00,,1952.00,1107.00,290.00,173.00,91.00,110.00,66.00,35.00,APPROVED
AL: BIRMINGHAM,01/10/2015 15:21:00,,1991.00,1123.00,296.00,173.00,89.00,109.00,68.00,35.00,APPROVED
AL: BIRMINGHAM,01/10/2015 16:21:00,,2016.00,1131.00,299.00,173.00,91.00,109.00,67.00,36.00,APPROVED
AL: BIRMINGHAM,01/10/2015 17:22:00,,2059.00,1151.00,300.00,174.00,89.00,110.00,67.00,37.00,APPROVED
AL: BIRMINGHAM,01/10/2015 18:22:00,,2080.00,1171.00,305.00,175.00,89.00,113.00,68.00,36.00,APPROVED
AL: BIRMINGHAM,01/10/2015 19:22:00,,2115.00,1185.00,306.00,174.00,91.00,114.00,69.00,36.00,APPROVED
AL: BIRMINGHAM,01/10/2015 20:22:00,,2110.00,1186.00,304.00,170.00,91.00,112.00,68.00,35.00,APPROVED
AL: BIRMINGHAM,01/10/2015 21:22:00,,2107.00,1164.00,304.00,169.00,89.00,111.00,68.00,35.00,APPROVED
AL: BIRMINGHAM,01/10/2015 22:23:00,,2091.00,1162.00,302.00,168.00,89.00,110.00,68.00,34.00,APPROVED